Location: Newark
(43.0000°N, 1.6781°W)
Time: 15:40:08
(UTC+00:00)

Vanguard 1 - Visible Passes

Search period start: 19 April 2021 00:00
Search period end: 29 April 2021 00:00
Orbit: 648 x 3834 km, 34.3° (Epoch: 18 April)

Date Brightness Start Highest point End Pass type
(mag) Time Alt. Az. Time Alt. Az. Time Alt. Az.
19 Apr 13.4 18:43:09 10° W 19:04:33 56° SSW 19:24:42 10° SE visible
19 Apr 13.4 21:10:22 10° W 21:28:01 29° SW 21:39:56 16° S visible
20 Apr 13.4 19:04:32 10° W 19:25:30 50° SSW 19:45:03 10° SE visible
20 Apr 13.6 21:33:12 10° W 21:48:15 22° SW 21:59:44 12° SSW visible
21 Apr 13.6 19:26:03 10° W 19:46:19 43° SW 20:05:05 10° SSE visible
21 Apr 13.7 21:57:19 10° W 22:08:23 16° SW 22:18:17 10° SSW visible
22 Apr 13.6 19:47:47 10° W 20:06:59 36° SW 20:24:45 10° SSE visible
23 Apr 13.7 20:09:51 10° W 20:27:31 30° SW 20:43:55 10° S visible
24 Apr 13.8 20:32:33 10° W 20:47:56 23° SW 21:02:22 10° S visible
25 Apr 14.0 20:56:27 10° W 21:08:15 17° SW 21:19:32 10° SSW visible
26 Apr 14.1 21:24:30 10° WSW 21:28:32 11° SW 21:32:30 10° SW visible
27 Apr 13.9 19:10:15 10° W 19:26:53 29° SW 19:44:22 10° S visible
28 Apr 14.0 19:32:52 10° W 19:47:29 23° SW 20:02:43 10° S visible
